Location: Stoke Bliss
(52.2667°N, 2.5167°W)
Time: 12:46:08
(UTC+00:00)

Okean-O - Pass Details

Date: 03 March 2021
Orbit: 638 x 640 km, 98.2° (Epoch: 11 April)

Event Time Altitude Azimuth Distance (km) Brightness Sun altitude
Rises 18:23:22 0° 153° (SSE) 2,937 5.8 -5.4°
Reaches altitude 10° 18:25:35 10° 151° (SSE) 2,032 5.0 -5.7°
Maximum altitude 18:29:57 62° 71° (ENE) 724 2.7 -6.4°
Drops below altitude 10° 18:34:21 10° 351° (N) 2,047 5.3 -7.1°
Sets 18:36:35 0° 348° (NNW) 2,960 6.2 -7.4°
